Theta_e
296 295 294 294 293 292 291 291 291 291 291 291 290 289 288 288 288 288 288 288 287 287 287 287 287 287 287 287 287 287 288 288 288 289 289 289 289 289 289 289 289 289 289 289 289 289 289 289 289 289 289 289 289 289 289 289 289 289 289 289 289 289 290 290 290 291 291 292 292 292 293 293 293 293 293 293 293 293 293 293 293 293 293 294 294 294
295 295 294 293 292 292 291 291 291 290 290 290 289 289 288 288 288 288 288 287 287 286 286 286 287 286 286 286 286 286 287 288 288 289 289 288 288 288 288 288 289 289 289 289 289 289 289 289 289 289 289 289 289 289 289 289 289 289 289 289 289 289 289 290 290 290 291 291 291 292 292 292 292 292 292 293 292 292 292 292 293 293 293 293 293 294
294 294 293 293 292 291 290 290 290 290 290 289 289 288 288 288 288 288 288 287 286 286 286 286 286 286 286 286 286 286 287 287 288 288 288 288 288 288 288 288 288 289 289 289 289 289 289 289 289 289 289 289 289 289 289 289 289 288 288 288 288 289 289 289 290 290 290 291 291 291 292 292 292 292 292 292 292 292 292 292 292 293 293 293 293 293
293 293 292 292 291 290 290 290 290 290 289 289 288 288 287 288 288 287 287 286 286 286 286 286 286 286 286 286 285 286 286 287 288 288 287 287 287 287 288 288 288 288 289 289 289 289 289 289 289 289 289 289 289 289 289 289 288 288 288 288 288 288 289 289 290 290 290 290 291 291 291 291 291 291 291 291 291 292 292 292 292 292 292 293 293 293
293 292 291 291 290 289 289 289 289 289 289 289 288 287 287 287 287 287 286 286 286 286 286 286 286 286 285 285 285 286 286 287 287 287 287 287 287 287 287 287 288 288 288 289 289 289 289 289 289 289 289 289 289 289 289 289 288 288 288 288 288 288 289 289 289 290 290 290 290 290 291 291 291 291 291 291 291 291 291 292 292 292 292 292 292 292
292 291 291 290 289 289 289 289 289 289 288 288 288 287 287 287 286 286 286 286 286 286 286 286 286 285 285 285 285 285 286 286 286 286 286 286 286 286 287 287 287 288 288 288 289 289 289 289 289 289 289 289 289 289 289 289 289 288 288 288 288 288 289 289 289 289 290 290 290 290 290 290 291 291 291 291 291 291 291 291 292 292 292 292 292 292
291 291 290 289 289 289 289 289 289 288 288 288 287 287 286 286 286 286 286 286 286 286 286 286 285 285 285 285 285 285 285 286 286 286 285 285 285 286 286 286 287 287 287 288 288 288 288 289 288 288 288 288 289 289 289 288 288 288 288 288 288 288 288 289 289 289 290 290 290 290 290 290 290 290 290 290 291 291 291 291 291 291 291 292 292 292
291 290 289 289 288 288 288 288 288 288 288 287 287 286 286 286 286 286 286 286 286 286 285 285 285 285 285 285 285 285 285 285 285 285 285 285 285 285 285 286 286 286 287 287 288 288 288 288 288 288 288 288 288 288 288 288 288 288 288 288 288 288 288 289 289 289 289 290 290 290 290 290 290 290 290 290 290 290 291 291 291 291 291 291 291 291
290 289 289 289 289 288 288 288 288 287 287 287 286 286 286 286 286 286 286 286 285 285 285 285 285 285 285 285 285 285 285 285 285 285 285 285 285 285 285 285 285 285 286 286 287 287 287 287 288 288 288 288 288 288 288 288 288 288 288 288 288 288 288 289 289 289 289 289 290 290 290 290 290 290 290 290 290 290 290 290 290 291 291 291 291 291
289 289 288 289 289 288 288 287 287 287 287 287 286 286 286 286 286 286 286 285 285 285 285 285 285 285 285 285 285 285 285 285 285 285 285 285 285 284 284 284 284 285 285 286 286 286 287 287 287 287 287 287 287 287 287 287 287 287 287 288 288 288 288 289 289 289 289 289 289 289 290 290 290 290 290 290 290 290 290 290 290 290 290 290 291 291
289 289 288 288 288 288 288 287 287 287 287 286 286 286 286 286 286 286 285 285 285 285 285 285 285 285 285 285 285 285 285 285 285 285 284 284 284 284 284 284 284 284 284 285 285 285 286 286 286 287 287 287 287 287 287 287 287 287 287 288 288 288 288 289 289 289 289 289 289 289 289 289 290 290 290 290 290 290 290 290 290 290 290 290 290 290
289 288 288 288 288 288 287 287 287 286 286 286 286 286 286 286 286 286 285 285 285 285 285 285 285 285 284 285 285 285 285 285 285 284 284 284 284 284 284 284 284 284 284 284 284 284 285 285 286 286 286 286 286 286 286 286 287 287 287 288 288 288 289 289 289 289 289 289 289 289 289 289 289 289 289 290 290 290 290 290 290 290 290 290 290 290
288 288 288 288 288 287 287 287 286 286 286 286 286 285 285 285 286 285 285 285 285 285 285 285 284 284 284 284 284 285 285 284 284 284 284 284 284 284 284 284 284 284 284 284 284 284 284 285 285 285 285 285 285 285 286 286 287 287 288 288 288 288 289 289 289 289 289 289 289 289 289 289 289 289 289 289 289 289 289 289 289 289 290 290 290 290
288 288 287 287 287 287 287 286 286 286 286 286 285 285 285 285 285 285 285 285 285 285 285 284 284 284 284 284 284 284 284 284 284 284 284 284 284 284 284 284 284 284 284 284 284 284 284 284 284 284 285 285 285 285 286 286 287 287 288 288 288 288 289 289 289 289 289 289 289 289 289 289 289 289 289 289 289 289 289 289 289 289 289 289 290 290
287 287 287 287 287 287 286 286 286 286 286 285 285 285 285 285 285 285 284 284 284 284 284 284 284 284 284 284 284 284 284 284 284 284 284 284 284 284 284 284 284 283 283 283 283 283 284 284 284 284 284 284 285 285 286 287 287 288 288 288 288 289 289 289 289 289 289 289 289 289 289 289 289 289 289 289 289 289 289 289 289 289 289 289 289 289
287 287 287 286 286 286 286 287 287 286 286 285 285 285 285 285 285 284 284 284 284 284 284 284 284 283 283 283 283 283 283 283 283 283 283 284 284 284 284 283 283 283 283 283 283 283 283 283 284 284 284 284 285 285 286 287 287 288 288 288 288 289 289 289 289 289 289 289 289 289 289 289 289 289 289 289 289 289 289 289 289 289 289 289 289 289
287 286 286 286 286 286 286 287 287 286 286 285 285 284 284 284 284 284 284 284 284 284 284 284 283 283 283 283 283 283 283 283 283 283 283 283 283 283 283 283 283 283 283 283 283 283 283 283 283 283 284 284 285 285 286 287 287 288 288 288 289 289 289 289 289 289 289 289 289 289 289 289 289 289 289 289 289 289 289 289 289 289 289 289 289 289
286 286 286 286 286 286 286 287 287 286 285 285 284 284 284 284 284 284 284 284 284 284 284 283 283 283 283 283 283 283 283 283 283 283 283 283 283 283 283 283 283 283 283 283 282 283 283 283 283 283 283 284 284 285 286 286 287 288 288 288 289 289 289 289 289 289 289 289 289 289 289 289 289 289 288 288 288 288 288 288 288 288 288 288 288 288
286 286 286 286 286 286 287 287 286 286 285 284 284 284 284 283 283 283 283 283 283 284 283 283 283 283 283 282 282 282 282 283 283 283 283 283 283 283 283 283 283 283 282 282 282 282 282 283 283 283 283 283 284 285 286 286 287 288 288 288 289 289 289 289 288 288 288 288 289 289 289 289 288 288 288 288 288 288 288 288 288 288 288 288 288 288
286 286 286 286 287 287 287 286 285 285 285 284 284 284 283 283 283 283 283 283 283 283 283 283 283 282 282 282 282 282 282 282 282 282 282 283 283 283 283 283 283 282 282 282 282 282 282 282 282 282 283 283 284 285 285 286 287 288 288 288 288 288 288 288 288 288 288 288 288 288 288 288 288 288 288 288 288 288 288 288 288 288 288 288 288 288
286 286 286 286 287 287 286 285 285 285 284 284 283 283 283 283 283 283 283 283 283 283 283 283 282 282 282 282 282 282 282 282 282 282 282 282 283 283 283 283 282 282 282 282 282 282 282 282 282 282 282 283 284 284 285 286 287 287 288 288 288 287 287 287 287 287 287 287 288 288 288 288 288 288 288 288 288 288 288 288 288 288 288 288 288 288
286 286 286 286 286 285 285 284 284 284 284 283 283 283 283 283 282 282 282 282 283 283 282 282 282 282 281 281 281 282 282 282 282 282 282 282 283 283 283 282 282 282 282 282 282 282 282 281 282 282 282 283 283 284 285 286 287 287 287 287 286 286 286 286 286 287 287 287 287 287 287 287 287 287 287 287 287 287 288 288 288 288 288 288 288 288
286 286 286 285 285 284 284 284 284 284 284 284 284 283 283 283 282 282 282 282 282 282 282 282 281 281 281 281 281 281 281 282 282 282 282 282 282 282 282 282 281 281 281 281 281 281 281 281 281 282 282 282 283 283 285 285 286 286 286 285 285 285 285 286 286 286 287 287 287 287 287 287 287 287 287 287 287 287 287 287 287 288 288 288 288 287
286 285 285 285 284 284 284 284 284 284 284 284 284 284 284 283 283 282 282 282 282 282 281 281 281 281 281 281 281 281 281 281 282 282 282 282 282 282 281 281 281 281 281 281 281 281 281 281 281 281 282 282 282 283 284 285 285 285 284 284 284 285 285 285 286 286 286 286 286 286 286 286 286 286 287 287 287 287 287 287 287 287 287 287 287 286
285 285 284 284 284 285 285 285 285 285 285 285 285 285 284 284 283 282 282 282 282 281 281 281 281 280 281 281 281 281 281 281 282 282 282 281 281 281 281 281 281 281 280 280 280 280 280 280 281 281 281 282 282 283 283 284 283 283 283 283 284 284 284 285 285 285 286 286 286 286 286 286 286 286 286 286 286 287 287 287 287 287 287 287 286 286
284 284 284 284 285 285 285 285 285 285 285 285 285 285 285 284 283 282 282 282 282 281 281 281 280 280 280 281 281 281 281 281 281 281 281 281 280 281 280 280 280 280 280 280 280 280 280 280 281 281 281 281 282 282 282 282 282 282 282 282 283 283 284 284 284 285 285 285 285 285 285 285 285 286 286 286 286 286 286 286 287 287 286 286 285 285
284 284 284 284 285 285 285 285 285 285 285 285 286 285 285 284 283 282 282 282 282 281 281 280 280 280 280 280 280 280 280 281 281 281 281 280 280 280 280 280 280 279 279 279 279 280 280 280 280 281 281 281 281 281 281 281 281 281 281 282 282 283 283 283 284 284 284 284 284 284 285 285 285 285 285 286 286 286 286 286 286 286 286 285 284 284
283 284 284 284 284 284 284 284 285 285 285 285 285 285 284 283 283 282 282 282 282 281 281 281 280 280 280 280 280 280 280 281 281 281 280 280 280 280 280 279 279 279 279 279 279 279 280 280 280 280 280 280 280 280 280 280 280 280 281 281 281 282 282 283 283 283 283 284 284 284 284 284 285 285 285 285 285 285 285 285 285 285 285 284 284 283
283 283 284 284 284 284 284 284 284 284 284 284 284 284 283 283 282 282 282 282 282 281 281 281 280 280 280 280 280 280 280 281 281 280 280 280 279 279 279 279 279 278 278 278 279 279 279 280 280 280 280 280 280 279 279 279 279 280 280 280 281 281 282 282 282 282 283 283 283 284 284 284 284 284 285 285 285 285 285 285 285 285 284 284 283 283
283 283 283 283 283 283 283 283 283 283 283 283 283 283 282 282 282 282 282 282 281 281 281 281 280 280 280 280 280 280 280 280 280 280 280 279 279 279 279 278 278 278 278 278 278 279 279 279 280 280 279 279 279 279 279 279 279 279 280 280 280 280 281 281 281 282 282 282 283 283 283 284 284 284 284 284 284 284 284 284 284 284 284 283 283 283
283 283 283 283 283 283 283 283 283 283 282 282 282 281 281 281 281 281 281 281 281 281 281 281 280 280 280 280 280 280 280 280 280 280 280 279 279 279 279 278 278 278 278 278 278 278 279 279 279 279 279 279 278 278 279 279 279 279 279 280 280 280 280 281 281 281 282 282 282 283 283 283 283 284 284 284 284 283 283 283 283 283 283 283 283 283
283 283 283 283 283 282 282 282 282 282 282 281 281 281 281 281 281 281 281 281 281 281 281 281 280 280 280 280 280 280 280 280 280 280 280 279 279 279 279 278 278 278 278 278 278 278 278 278 278 278 278 278 278 278 278 279 279 279 279 279 280 280 280 280 281 281 281 282 282 282 283 283 283 283 283 283 283 283 283 283 283 283 283 282 282 283
283 283 283 282 282 282 282 282 282 281 281 281 281 281 281 281 281 281 281 281 281 281 281 281 280 280 280 280 280 280 280 279 279 280 280 279 279 279 279 279 279 278 278 278 278 278 278 278 278 278 278 278 278 278 278 279 279 279 279 279 279 279 280 280 280 280 281 281 282 282 282 282 282 283 282 282 282 282 282 282 282 282 282 282 282 282
283 282 282 282 282 282 281 281 281 281 281 280 281 281 281 281 281 281 281 281 281 281 281 281 280 280 280 280 280 280 280 279 279 279 279 279 279 279 279 279 279 279 278 278 278 278 278 277 277 277 278 278 278 278 278 279 279 279 279 279 279 279 280 280 280 280 281 281 281 282 282 282 282 282 282 282 282 281 282 282 281 281 281 281 282 282
282 282 282 281 281 281 281 280 280 280 281 281 281 281 281 281 281 281 281 281 281 281 280 280 280 280 280 280 280 279 279 279 279 279 279 279 279 279 279 279 279 279 279 278 278 278 278 277 277 278 278 278 278 278 279 279 279 279 279 279 279 279 280 280 280 280 281 281 281 282 282 282 282 281 281 281 281 281 281 281 281 281 281 281 281 281
282 282 281 281 281 280 280 280 280 280 281 281 281 281 281 281 281 281 281 281 281 280 280 280 280 280 279 279 279 279 279 279 279 279 279 279 279 279 279 279 279 279 279 278 278 278 278 278 278 278 278 278 278 278 279 279 279 279 279 279 279 279 280 280 280 280 281 281 281 282 282 281 281 281 281 281 281 280 280 280 280 280 280 280 281 281
282 281 281 281 280 280 280 280 280 280 281 281 281 281 281 281 281 281 281 280 280 280 280 279 279 279 279 279 279 279 279 279 279 279 279 279 279 279 279 279 279 279 279 279 278 278 278 278 278 278 278 278 278 278 279 279 279 279 279 279 279 279 280 280 280 280 281 281 281 282 281 281 281 280 280 280 280 280 280 279 279 279 280 280 280 280
281 281 281 280 280 280 280 280 280 280 281 281 281 281 281 281 281 281 280 280 280 280 279 279 279 279 279 279 279 279 279 279 279 280 280 280 280 280 280 279 279 279 279 279 278 278 278 278 278 278 278 278 278 278 278 278 278 278 278 279 279 279 279 280 280 280 281 281 281 281 281 281 280 280 280 280 279 279 279 279 279 279 279 279 280 280
281 280 280 280 280 280 280 280 280 280 280 281 281 281 281 281 281 280 280 280 280 279 279 279 279 279 279 279 279 279 279 279 280 280 280 280 280 280 280 280 279 279 279 279 278 278 278 278 278 278 278 278 278 278 278 278 278 278 278 279 279 279 279 280 280 280 281 281 281 281 281 280 280 280 280 279 279 279 279 279 279 279 279 279 279 279
280 280 280 280 280 280 280 280 280 280 280 280 280 280 280 280 280 280 280 280 279 279 279 279 279 279 279 279 279 279 279 279 279 279 280 280 280 280 279 279 279 279 279 279 278 278 278 278 278 278 278 278 278 278 278 278 278 278 278 279 279 279 279 279 280 280 281 281 281 281 280 280 280 280 279 279 279 279 279 279 279 279 279 279 279 279
280 280 280 280 280 280 280 280 280 280 280 280 280 280 280 280 280 280 280 280 279 279 279 279 279 279 279 279 279 279 279 279 279 279 279 279 279 279 279 279 279 279 279 279 278 278 278 278 278 277 277 277 277 278 278 278 278 278 278 278 279 279 279 279 280 281 281 281 280 280 280 280 279 279 279 279 279 279 279 279 279 279 279 279 279 279
280 280 280 280 280 280 280 280 280 280 280 280 280 280 280 280 280 280 280 279 279 279 279 279 278 278 278 279 279 279 279 279 279 279 279 279 279 279 279 279 279 279 279 279 279 278 278 278 278 278 278 278 277 277 277 277 278 278 278 278 278 279 279 280 280 280 280 280 280 280 280 279 279 279 279 279 279 279 279 279 279 279 279 279 279 279
280 280 279 280 280 280 280 280 280 280 280 280 280 280 280 280 280 280 280 279 279 279 279 279 278 278 278 278 278 278 278 279 279 279 279 279 279 279 279 279 279 279 279 279 278 278 278 278 278 278 278 278 277 277 277 277 277 278 278 278 278 279 280 280 280 280 280 280 280 279 279 279 279 279 279 279 279 279 279 279 279 279 279 279 279 279
279 279 279 279 279 279 279 279 279 279 279 279 279 280 279 279 279 279 279 279 279 279 279 278 278 278 278 278 278 278 278 278 278 278 279 279 278 279 278 278 278 278 278 278 278 278 278 278 278 278 278 278 278 277 277 277 277 277 278 278 279 279 280 280 280 280 280 279 279 279 279 279 279 279 279 279 279 279 279 279 279 279 279 279 279 279
279 279 279 279 279 279 279 279 279 279 279 279 279 279 279 279 279 279 279 279 279 279 279 278 278 278 278 278 278 278 278 278 278 278 278 278 278 278 278 278 278 278 278 278 278 278 278 278 278 278 278 278 277 277 277 277 277 278 278 278 279 279 280 280 280 279 279 279 279 279 279 279 278 278 279 279 279 279 279 279 279 279 279 279 279 279
279 279 279 279 279 279 279 279 279 279 279 279 279 279 279 279 279 279 279 279 279 279 278 278 278 277 277 277 277 277 277 278 278 278 278 278 278 278 278 278 278 278 278 278 278 278 278 278 278 278 278 278 277 277 277 277 277 278 278 279 279 279 279 279 279 279 279 279 279 279 278 278 278 278 279 279 279 279 279 279 279 279 279 279 279 279
279 279 279 279 279 279 279 279 279 279 279 279 279 279 279 279 279 279 279 279 279 278 278 278 278 277 277 277 277 277 277 278 278 278 278 278 278 278 278 278 278 278 278 278 278 278 278 278 278 278 278 277 277 277 277 278 278 278 279 279 279 279 279 279 279 279 279 279 278 278 278 278 278 279 279 279 279 279 279 279 279 279 279 279 279 279
279 279 279 279 279 279 279 279 279 279 279 279 279 279 279 279 279 279 279 278 278 278 278 278 277 277 277 277 277 277 277 278 278 277 277 277 277 277 277 277 278 278 278 278 278 278 278 278 278 278 278 277 277 277 278 278 279 279 279 279 279 278 278 278 278 278 278 278 278 278 278 278 279 279 279 279 279 279 279 279 279 279 279 279 279 279
279 279 279 279 279 279 279 279 279 279 279 279 279 279 279 279 278 278 278 278 278 278 278 277 277 277 277 277 277 277 277 277 277 277 277 277 277 277 277 277 277 277 278 278 277 277 277 277 277 277 278 278 278 278 278 279 279 279 278 278 278 278 278 278 278 278 278 278 278 278 278 279 279 279 279 279 279 279 279 279 279 279 279 279 279 279
279 279 279 279 279 279 279 279 279 279 279 279 279 278 278 278 278 278 278 278 278 278 277 277 277 277 277 277 277 277 277 277 277 277 277 277 277 277 277 277 277 277 277 277 277 277 277 277 277 278 278 278 279 279 279 279 278 278 278 278 278 278 278 278 278 278 278 278 278 278 279 279 279 279 279 279 279 279 279 279 279 279 279 279 279 279
279 279 279 279 279 279 279 279 279 279 279 279 279 278 278 278 278 278 278 278 277 277 277 277 277 276 276 277 277 277 277 277 276 276 276 276 277 277 277 277 277 277 277 277 277 277 277 277 277 278 278 278 279 279 278 278 278 278 278 278 278 278 278 278 278 278 278 278 278 279 279 279 279 279 279 279 279 279 279 279 279 279 279 279 279 279
Wind_Speed
3 4 5 6 7 8 8 9 10 11 13 15 16 18 18 17 15 15 15 16 16 15 15 14 14 15 16 17 17 17 17 17 18 18 19 19 20 20 20 19 19 19 18 18 18 18 18 17 17 17 17 16 16 16 16 16 16 16 16 16 16 16 17 17 18 19 19 19 20 20 20 20 21 21 21 21 22 22 22 23 23 24 24 24 25 26
3 4 5 7 8 8 8 10 11 12 13 15 17 18 18 16 15 15 16 16 16 15 15 15 15 16 17 17 18 18 17 17 18 18 19 20 20 20 20 20 19 19 19 19 18 18 18 17 17 17 17 16 16 16 16 16 16 16 16 16 16 16 17 17 18 19 19 20 20 20 21 21 21 21 22 22 22 22 22 23 23 24 24 24 25 25
5 5 7 8 9 9 9 10 11 11 12 14 16 17 17 16 15 16 16 17 16 15 15 15 16 17 17 18 18 18 17 17 18 18 19 20 20 20 20 20 20 19 19 19 18 18 18 17 17 17 17 16 16 16 16 16 16 16 16 16 16 17 17 18 18 19 20 20 20 21 21 21 21 22 22 22 22 22 22 23 23 24 24 24 25 25
6 7 8 9 9 9 9 10 10 11 12 13 15 16 16 15 15 15 16 16 16 16 15 16 17 17 18 18 18 18 18 17 18 18 19 20 20 21 21 21 20 20 20 19 19 18 18 17 17 17 17 16 16 16 16 16 16 16 16 16 16 17 17 18 18 19 20 20 21 21 21 21 22 22 22 22 22 22 22 23 23 23 24 24 25 25
5 7 8 9 9 9 9 9 10 11 12 14 15 16 15 14 14 15 15 15 16 16 16 17 17 17 18 19 19 18 17 17 17 18 19 20 20 21 21 21 21 20 20 19 19 18 18 18 17 17 17 16 16 16 16 16 16 16 16 16 17 17 18 18 19 19 20 20 20 21 21 22 22 22 22 22 22 23 23 23 23 23 24 24 24 25
5 6 7 8 9 9 9 9 10 11 13 15 16 16 16 15 15 15 16 16 16 16 17 17 18 18 19 19 18 18 17 17 17 18 19 20 21 21 21 21 21 20 20 19 19 18 18 18 17 17 17 17 17 17 17 17 17 16 16 17 17 18 18 19 19 20 20 20 20 21 21 22 22 22 22 22 22 23 23 23 23 23 23 24 24 25
5 6 7 8 9 8 8 8 9 11 13 15 16 16 16 16 16 16 17 17 17 17 17 18 19 20 20 20 19 18 17 17 18 18 20 21 21 21 21 21 20 20 19 19 19 18 18 18 17 17 17 17 17 17 17 17 17 17 17 17 17 18 19 19 20 20 21 21 21 21 21 21 22 22 22 22 22 22 23 23 23 23 23 24 24 25
5 7 8 8 8 8 7 7 9 11 13 14 15 15 15 16 17 18 19 19 18 18 18 19 20 22 22 21 20 18 18 18 18 19 21 22 22 22 22 21 20 20 19 19 19 19 18 18 18 17 17 17 17 17 17 17 17 17 17 17 18 18 19 20 20 21 21 22 22 22 22 22 22 22 22 22 22 22 23 23 23 23 23 24 24 25
6 7 8 8 8 8 7 7 8 10 12 14 14 15 14 15 16 18 19 20 19 19 18 19 21 22 23 22 21 19 18 18 18 20 21 22 23 22 22 21 20 20 19 19 19 19 19 18 18 18 18 18 18 18 18 17 17 17 18 18 19 19 20 20 20 21 21 22 22 22 22 22 22 22 22 22 22 22 23 23 23 23 24 24 24 25
5 6 7 7 7 7 7 8 9 10 12 13 13 13 13 14 16 17 19 19 20 20 20 20 21 22 23 23 22 20 19 19 19 20 21 22 22 22 21 21 21 20 20 19 19 19 19 18 18 18 18 18 18 18 18 18 18 18 18 19 19 20 20 20 21 21 22 22 23 23 23 23 23 22 22 22 22 22 23 23 23 24 24 24 25 25
5 6 6 6 6 6 6 8 9 10 12 13 13 13 13 14 15 16 17 19 20 21 21 21 21 22 22 23 22 20 20 21 22 23 23 24 23 23 22 22 22 21 21 20 19 19 19 19 19 19 19 19 19 19 19 19 19 19 19 20 20 20 21 21 21 21 22 22 23 23 23 23 23 23 23 23 23 23 23 23 23 24 24 25 25 25
5 6 6 5 5 6 7 8 9 11 12 13 13 13 14 15 15 16 16 17 19 21 21 22 22 22 22 22 21 20 20 22 23 25 25 25 25 25 25 25 25 24 23 22 22 21 20 20 19 19 20 20 20 20 20 20 20 20 20 21 21 21 21 21 21 22 22 22 23 23 23 24 23 23 23 23 23 23 23 23 24 24 25 25 25 25
4 5 5 5 5 6 8 9 11 11 12 12 13 13 14 16 17 16 16 17 18 20 21 22 22 22 21 19 18 18 20 23 24 25 25 24 24 25 25 26 27 26 26 25 24 24 23 22 21 21 21 21 21 21 21 21 21 21 21 21 21 21 21 21 21 22 22 23 23 23 23 23 23 24 24 23 23 23 24 24 25 25 25 25 25 25
4 5 5 6 6 7 8 10 10 10 11 12 13 13 15 16 18 18 17 17 18 19 20 21 21 21 20 18 16 17 20 23 25 25 24 24 24 24 25 26 26 26 26 25 25 25 25 24 24 24 24 24 24 23 22 22 22 22 22 22 22 21 21 22 22 22 22 23 23 23 23 24 24 24 24 24 24 24 24 25 25 26 26 26 26 26
5 6 7 7 7 8 8 9 9 9 10 11 12 14 15 16 17 18 17 17 18 19 20 20 20 20 19 17 17 18 21 23 24 25 25 25 24 24 24 25 26 26 26 25 26 26 26 25 25 25 26 25 25 24 23 23 23 23 22 22 22 22 22 22 22 22 23 23 23 23 24 24 24 24 24 24 24 25 25 25 26 26 26 26 26 26
4 5 7 7 8 8 8 8 8 8 10 11 13 14 15 16 17 17 17 17 17 18 18 18 18 18 17 18 19 21 23 24 25 25 25 25 25 25 24 25 25 26 26 25 26 27 27 27 26 26 27 26 25 24 24 24 23 23 23 22 22 22 22 22 22 23 23 23 24 24 24 24 24 24 25 25 25 25 25 25 26 26 26 25 25 25
4 5 6 7 8 8 7 7 7 8 9 11 12 13 15 16 17 17 17 17 17 16 16 16 14 12 14 18 21 23 25 26 25 25 25 25 25 25 24 24 24 24 25 26 26 26 27 27 27 27 27 26 25 25 24 24 24 23 23 23 22 22 22 22 23 23 24 24 25 25 25 25 25 25 25 25 25 25 25 25 25 25 25 25 25 25
5 5 6 6 6 7 7 6 7 8 10 11 12 13 14 15 16 17 17 16 16 15 15 15 13 11 12 15 20 24 26 27 26 25 25 24 24 24 24 23 24 24 25 26 26 26 26 27 28 28 27 26 26 25 25 24 24 24 23 23 23 22 22 22 23 24 25 25 25 25 25 25 25 25 25 25 26 26 26 26 26 25 25 25 25 25
5 5 6 5 5 6 6 6 8 9 10 11 12 14 15 16 17 17 17 16 15 15 15 15 14 14 15 17 22 25 26 26 26 25 24 24 24 23 23 23 24 25 25 26 26 26 26 27 28 29 28 27 26 25 24 24 24 24 23 23 22 22 23 23 24 25 26 26 26 26 25 25 25 25 25 26 26 26 26 26 25 25 24 25 25 25
6 5 5 5 5 5 5 7 8 8 9 10 11 13 15 16 17 18 17 17 16 16 16 15 16 16 18 20 23 25 26 26 25 23 22 23 23 23 23 23 24 24 25 26 26 26 26 28 29 30 29 27 25 24 24 24 24 23 23 22 22 23 24 25 25 26 26 26 26 25 25 25 25 25 25 26 26 26 25 25 25 24 24 24 24 24
5 5 4 4 5 6 6 7 7 8 8 9 11 12 14 16 17 17 18 18 17 17 17 16 17 18 20 21 23 24 24 24 23 22 20 21 21 22 22 23 24 25 25 25 26 26 27 28 30 30 29 27 25 24 24 24 23 23 22 23 23 24 25 26 26 26 26 26 25 25 25 25 25 25 26 26 26 25 25 25 24 24 24 24 24 24
5 4 3 3 3 4 4 6 7 8 9 10 11 12 13 15 16 17 18 18 18 18 18 18 19 21 22 22 22 22 21 22 22 21 19 18 19 21 22 23 24 25 25 26 26 26 27 28 29 28 27 25 24 23 23 23 23 23 23 24 25 26 26 26 26 26 26 25 25 25 25 25 25 26 26 26 26 25 25 25 24 24 24 24 24 23
5 4 3 3 3 3 4 6 7 9 10 12 12 13 14 14 15 16 16 16 17 18 19 20 21 22 21 20 19 19 20 20 20 19 17 14 16 20 23 24 24 24 25 25 26 27 28 28 27 27 26 24 23 22 22 22 22 23 24 26 26 27 27 26 26 26 25 25 25 25 25 25 26 26 26 26 25 25 25 25 24 24 24 24 23 23
4 3 3 3 3 4 5 6 7 9 11 12 13 14 15 15 15 14 14 14 15 17 19 21 22 21 19 18 17 18 19 19 19 18 15 13 16 20 22 23 23 24 25 25 26 26 27 27 27 27 25 24 22 21 21 22 23 24 26 26 27 26 26 26 25 25 25 25 25 25 26 26 26 26 26 26 25 25 25 25 24 24 24 23 23 22
2 2 3 3 4 4 5 5 7 8 10 11 13 14 15 16 16 16 15 15 16 18 20 20 19 18 18 17 17 18 20 19 18 17 17 15 17 20 22 22 22 23 25 26 26 26 25 26 26 26 25 23 21 20 21 22 24 25 26 26 26 26 26 25 25 25 25 26 26 26 26 26 26 26 25 25 25 25 25 24 24 24 24 23 22 21
2 2 2 2 3 4 5 6 7 8 9 10 12 13 14 16 17 18 18 18 19 19 19 18 17 17 18 17 17 18 19 18 17 17 19 17 18 19 21 21 21 23 25 26 26 24 24 24 25 25 23 22 21 21 22 24 26 26 26 25 25 25 25 25 25 26 26 26 26 26 26 26 26 25 25 25 25 25 24 24 24 24 23 22 22 21
3 2 2 3 4 5 6 7 8 9 9 10 11 12 13 15 17 18 18 19 20 19 18 16 15 15 17 17 17 18 19 17 16 17 20 20 19 18 19 20 21 23 24 26 25 24 23 22 23 23 22 21 21 22 24 25 26 26 25 25 24 24 25 25 25 26 26 26 26 26 26 25 25 25 25 25 25 24 24 24 24 24 23 22 21 21
3 3 3 4 5 6 6 7 8 9 10 11 11 12 13 14 16 17 17 18 19 19 17 15 14 13 14 15 17 19 19 15 14 17 20 20 18 17 19 20 21 22 23 24 26 25 22 20 20 20 20 20 22 24 25 27 27 26 25 24 24 24 24 24 25 26 26 26 26 26 25 25 25 25 25 24 24 24 24 24 24 24 22 22 21 21
4 4 4 5 5 6 7 8 8 9 10 11 11 11 12 13 14 15 16 17 18 18 17 16 15 14 14 17 18 18 17 13 14 18 21 20 17 16 19 20 21 21 21 23 25 25 23 20 18 17 19 21 23 25 27 27 27 26 25 24 24 23 24 24 25 25 26 26 25 25 25 25 24 24 24 24 24 24 24 24 24 24 22 22 21 21
4 4 5 5 6 6 7 8 8 9 10 10 11 11 11 12 12 13 14 16 16 17 16 16 16 16 16 17 16 14 12 13 16 19 21 19 17 17 19 19 19 20 20 19 18 17 19 21 20 19 20 22 24 26 27 27 27 26 26 25 24 24 24 25 25 25 25 25 25 24 24 24 24 24 24 24 24 24 24 24 24 24 22 22 21 21
4 5 5 6 6 6 7 7 8 9 9 10 11 11 11 11 12 12 13 14 15 16 16 16 16 16 16 14 10 6 7 13 18 20 20 18 16 17 18 18 19 19 18 16 11 7 11 17 22 24 24 25 26 26 26 26 26 26 26 26 25 25 25 25 25 25 25 24 24 24 24 24 24 24 23 23 23 24 24 24 24 24 23 22 21 20
4 5 5 5 5 6 6 7 8 9 10 11 12 12 13 13 13 13 13 14 15 16 16 16 15 16 16 14 10 8 11 16 20 20 19 17 16 17 18 18 18 19 18 16 13 9 7 10 19 26 27 27 26 26 26 26 25 25 25 25 26 26 26 26 26 25 25 24 24 24 23 23 23 23 23 23 23 24 24 25 25 24 23 22 21 20
4 4 4 5 5 6 6 7 8 10 11 12 13 14 14 14 14 14 15 15 15 16 16 16 15 15 16 16 15 15 17 20 21 20 19 17 16 17 18 18 18 19 19 17 16 14 12 14 20 25 27 27 26 26 26 25 25 24 25 25 26 27 27 27 27 26 25 25 24 24 23 23 22 22 23 23 23 24 24 25 25 24 23 22 21 20
3 4 5 6 6 7 8 9 10 11 12 13 14 15 15 16 16 16 16 16 16 17 17 16 16 16 16 16 16 18 19 22 22 22 20 18 17 17 18 18 18 19 19 18 18 18 18 20 22 23 24 26 26 26 25 24 24 25 26 26 26 26 27 27 27 27 26 26 25 24 23 23 23 23 23 23 23 24 24 25 25 24 23 22 21 21
4 5 7 8 9 10 11 12 12 13 14 15 15 16 16 16 16 17 17 17 17 18 18 17 17 16 16 16 16 17 20 23 24 23 22 20 18 18 18 18 18 18 18 18 18 18 18 21 22 22 22 25 26 26 25 24 25 26 26 26 25 25 26 27 27 27 27 26 25 24 23 23 23 23 23 23 24 24 25 25 25 24 23 22 21 20
5 6 8 10 11 12 13 13 14 15 15 16 16 16 16 16 17 17 17 18 19 19 19 18 17 17 17 17 18 19 22 24 24 23 22 21 20 19 18 17 18 18 18 18 18 18 18 20 22 23 22 22 22 24 26 27 27 26 26 26 25 26 26 26 26 26 26 25 24 23 23 23 24 24 24 24 24 24 24 24 24 23 23 22 21 20
6 7 8 10 12 13 14 14 15 16 16 17 17 17 17 17 17 17 18 19 19 20 20 19 19 18 18 18 19 21 22 23 22 22 21 20 20 19 18 18 18 19 18 17 18 19 19 19 21 22 22 20 20 21 25 28 28 27 26 26 26 26 26 26 26 25 24 23 23 22 23 23 24 24 24 24 24 24 24 23 23 23 22 21 20 19
7 8 9 11 12 13 14 15 15 16 16 17 17 17 17 17 17 17 18 19 20 21 21 20 20 20 19 19 19 19 19 20 20 20 20 19 19 19 19 19 20 20 19 19 19 19 19 18 16 16 18 21 22 24 25 27 27 27 27 26 25 24 24 25 25 25 23 22 22 22 23 24 24 24 24 24 24 24 23 23 23 23 22 21 20 19
8 9 10 11 12 13 14 15 15 16 16 16 16 16 16 16 17 18 19 20 21 21 21 21 22 21 21 20 19 18 18 18 18 18 18 18 18 18 19 20 21 22 22 21 20 19 19 18 17 16 17 20 23 26 27 27 26 27 28 27 26 24 23 24 24 24 22 22 22 23 24 24 24 24 24 23 23 23 23 23 23 22 22 21 21 19
10 10 11 12 12 13 13 14 14 15 15 15 15 15 15 16 17 19 20 21 21 22 22 23 23 23 22 21 20 19 18 17 17 17 18 18 18 19 19 20 22 23 24 23 22 21 20 21 21 22 22 22 23 25 26 27 26 26 26 26 25 24 25 25 24 23 22 22 22 23 24 24 24 24 23 24 23 23 22 22 22 22 21 20 20 19
10 11 12 12 12 12 12 13 13 13 14 14 14 15 16 17 18 20 21 22 23 23 24 24 25 25 24 23 22 21 20 19 18 18 18 18 19 19 20 21 22 23 24 24 24 24 23 23 23 24 24 24 25 26 26 26 26 26 25 24 24 26 27 25 23 22 22 22 23 23 24 24 24 24 24 24 23 22 22 21 21 21 20 19 18 18
11 11 11 11 11 11 11 11 12 12 13 14 15 16 17 18 19 21 22 22 23 23 24 25 25 25 26 25 25 23 22 21 20 19 19 19 19 19 20 21 22 23 24 25 25 25 24 23 24 24 25 25 25 25 26 27 27 26 24 24 26 27 26 24 22 22 22 23 24 24 24 24 24 25 24 24 23 22 22 21 20 20 19 19 18 18
10 11 11 11 10 10 10 11 12 13 14 15 16 17 17 18 19 20 21 21 22 23 24 24 24 24 23 24 25 25 25 23 22 21 20 20 20 20 20 21 21 22 23 24 25 25 25 25 24 24 25 26 25 25 26 27 27 26 25 24 25 24 21 23 24 25 24 24 24 24 24 24 25 25 25 24 23 22 21 20 20 19 19 19 18 18
10 10 10 10 10 10 11 12 13 14 15 16 17 18 18 19 19 20 21 21 22 23 24 24 24 23 22 22 23 25 26 25 24 23 22 21 21 21 21 22 22 22 23 24 24 25 25 25 25 26 26 26 25 25 25 26 26 26 25 24 23 22 20 22 25 26 26 25 25 24 24 25 26 26 25 24 23 21 20 20 20 20 20 19 19 19
9 10 11 11 12 12 13 14 14 15 16 17 17 18 19 19 20 20 21 21 22 23 23 24 23 21 20 21 22 23 24 25 26 25 24 24 23 22 22 23 23 23 23 23 24 24 25 25 26 27 27 26 25 24 25 25 25 25 25 24 23 23 23 24 25 25 25 25 25 25 25 26 27 26 25 23 22 21 20 20 20 20 20 20 19 19
10 11 12 13 13 14 15 15 15 16 17 17 18 19 19 20 20 21 21 22 22 23 23 23 22 20 20 21 22 23 23 24 25 25 26 26 26 25 25 24 24 24 24 24 24 24 25 25 26 27 27 26 25 24 24 24 24 24 24 24 24 24 24 24 24 24 24 24 25 26 27 27 26 25 23 23 22 21 21 20 20 20 20 20 19 18
11 12 13 13 14 15 15 16 16 17 18 19 19 20 20 21 21 21 21 22 22 22 22 23 22 21 21 22 22 22 23 23 24 25 26 27 27 27 26 26 25 25 24 24 24 24 24 25 25 26 25 24 23 23 23 23 22 22 23 24 24 24 24 24 24 23 23 24 25 26 27 27 26 24 23 23 23 22 22 21 21 21 20 20 19 18
11 12 13 14 14 15 16 17 17 18 19 19 20 21 21 21 21 21 22 22 23 22 22 22 22 22 22 22 22 22 22 22 23 24 25 26 27 27 27 27 27 26 25 24 23 22 22 22 22 22 23 22 21 21 22 23 22 22 23 23 23 23 23 23 24 24 24 24 25 26 26 25 24 23 24 24 23 23 23 23 22 21 20 19 19 18
12 12 13 14 14 15 16 17 18 18 19 20 21 21 22 22 22 21 22 22 23 22 22 22 22 22 22 22 22 22 22 22 23 24 24 25 26 26 27 27 28 27 26 25 24 22 21 19 18 17 16 17 19 20 21 22 23 23 23 22 22 22 22 23 24 24 24 25 25 25 25 23 22 22 22 22 23 24 25 24 23 22 20 19 19 19
12 13 13 14 15 15 16 17 18 18 19 19 20 21 22 23 23 23 23 22 22 22 22 22 22 21 21 22 22 22 22 22 23 23 24 25 25 26 27 27 27 27 27 26 25 24 22 20 18 15 12 11 13 16 19 22 23 23 22 21 21 21 22 24 25 25 25 25 25 25 24 23 22 21 21 21 22 24 25 24 23 22 21 20 20 20
13 13 14 14 15 16 16 17 18 18 19 19 20 21 22 23 24 24 23 23 22 22 22 22 22 21 20 20 21 21 22 22 22 23 24 25 25 25 26 26 26 26 25 24 24 23 22 20 18 17 16 13 11 13 16 20 22 23 22 22 21 22 23 24 25 25 25 25 24 24 23 22 21 21 21 21 22 22 23 23 24 24 23 22 22 21
Wind_Direction
346 335 330 330 337 343 345 339 335 333 330 328 329 333 337 342 343 339 336 335 337 339 341 341 339 336 333 332 330 328 327 326 327 328 329 331 331 332 331 331 330 329 328 328 327 327 327 327 327 327 327 327 327 326 326 326 326 326 327 327 327 327 327 328 328 328 329 329 330 330 331 331 331 331 331 332 332 332 332 332 332 332 332 332 332 331
360 337 330 331 338 346 346 340 337 336 335 333 333 336 339 342 342 338 336 336 338 342 343 342 340 337 334 332 330 328 326 327 327 328 330 331 331 332 331 331 330 329 328 327 326 326 326 326 326 326 326 325 325 325 325 325 325 325 325 325 325 325 326 326 327 328 328 329 329 330 330 331 331 331 331 332 332 332 332 332 331 331 332 332 331 331
344 334 332 333 340 348 349 344 339 337 336 334 335 337 340 341 340 337 335 336 339 343 345 343 340 337 334 333 331 330 328 328 329 330 331 332 332 332 331 331 330 329 328 327 326 326 325 325 325 325 325 324 324 324 324 324 324 324 324 324 324 325 325 326 326 327 327 328 329 329 330 330 331 331 331 331 331 331 331 331 331 331 331 331 331 331
341 340 338 337 341 348 350 346 341 337 334 333 334 337 341 341 339 336 335 336 340 343 345 343 340 337 335 333 333 332 330 330 330 331 332 332 333 332 332 331 330 329 328 327 326 325 325 324 324 324 323 323 323 323 323 323 323 323 323 323 323 324 324 325 326 326 327 328 328 328 329 329 330 330 330 330 329 329 329 330 330 330 330 330 330 330
347 346 342 341 345 349 348 347 341 336 334 333 336 339 342 342 339 337 337 340 343 344 344 342 340 337 335 335 335 334 331 331 331 332 332 333 333 333 332 331 330 329 328 327 326 325 324 324 324 324 323 322 321 321 321 322 322 321 321 322 323 324 324 325 325 326 326 327 327 327 328 328 328 328 328 328 328 328 328 328 328 329 328 329 329 329
345 345 340 342 345 348 348 348 343 340 339 339 340 343 345 343 342 341 342 345 346 345 343 341 339 337 337 338 338 337 333 331 331 332 333 334 334 333 333 332 331 330 329 328 327 326 325 325 325 324 323 322 321 321 320 320 320 320 320 321 322 323 324 324 325 325 326 326 326 326 326 327 327 327 327 326 326 326 326 326 326 327 327 327 328 328
329 333 338 343 347 349 351 349 346 345 346 347 346 345 345 345 345 344 344 346 346 345 343 340 339 339 340 341 342 340 337 333 331 331 333 334 335 335 335 334 332 331 330 329 328 327 326 326 325 325 324 323 322 321 320 320 319 319 319 320 321 322 323 323 324 325 325 325 325 325 325 325 325 325 325 325 325 325 324 324 325 325 326 326 326 327
329 332 340 349 353 353 353 350 348 349 350 351 350 348 345 345 344 343 343 345 345 344 341 339 338 339 342 344 344 343 340 335 333 331 332 334 336 337 336 335 334 332 331 330 329 328 327 327 326 326 325 324 323 322 321 320 319 318 318 319 320 321 322 323 323 324 325 325 325 325 325 325 325 324 324 324 323 323 323 323 324 324 324 325 325 325
339 341 345 351 354 354 352 350 349 350 350 350 350 348 345 342 341 340 340 342 342 342 341 338 337 338 341 344 344 343 340 335 332 332 333 334 335 336 336 335 335 334 332 330 329 328 327 326 326 326 326 325 324 322 321 320 319 318 318 318 319 320 321 322 322 323 324 324 325 325 325 324 324 324 324 323 323 322 322 322 322 322 323 323 324 324
343 347 348 350 351 352 354 354 351 348 348 349 349 349 346 343 340 338 338 338 339 340 340 338 336 336 337 341 343 342 338 333 331 331 332 334 335 335 336 336 336 335 333 331 329 328 327 326 326 326 326 325 324 323 321 320 319 317 317 317 318 319 320 321 322 323 323 324 324 324 324 324 324 324 323 323 322 322 321 321 321 321 322 322 322 322
350 350 349 348 347 350 354 356 351 348 347 349 350 350 350 348 344 340 337 336 336 338 339 338 337 335 334 336 338 339 336 332 330 330 332 334 336 338 338 338 338 338 336 334 332 330 329 327 326 326 325 324 324 323 321 320 318 317 317 317 317 318 319 320 321 322 322 323 323 324 324 324 324 323 323 323 322 321 321 320 320 321 321 321 321 321
356 354 352 348 348 353 357 355 353 351 353 354 353 351 349 349 347 343 338 335 334 334 335 335 335 335 334 334 335 336 334 332 331 331 331 334 337 339 340 340 341 340 340 339 338 336 333 330 327 326 325 324 323 323 321 319 318 317 316 316 317 317 318 319 320 321 321 322 323 323 323 323 323 323 323 322 321 320 320 320 320 320 320 320 320 320
3 359 355 352 357 2 3 1 360 359 359 358 354 349 344 344 344 343 339 335 333 333 333 332 332 333 335 336 337 335 333 331 331 331 331 332 335 337 338 339 339 340 340 339 339 338 336 332 329 328 327 325 324 323 321 320 318 318 317 316 316 317 317 318 319 320 320 321 322 322 322 322 322 322 322 321 320 320 320 320 320 320 320 320 320 319
14 9 8 11 13 13 10 7 4 1 359 357 352 346 341 341 342 342 339 336 334 334 334 332 330 331 334 337 338 336 333 332 332 331 330 331 333 335 337 336 337 337 338 337 336 336 335 333 331 330 329 327 326 325 323 321 320 319 318 317 316 316 317 318 318 319 319 320 320 321 321 321 321 321 321 320 320 320 320 320 320 320 320 319 319 319
26 22 23 22 21 16 11 6 2 358 356 352 347 343 341 342 343 343 341 337 335 335 336 334 332 332 334 336 337 336 336 335 333 331 329 329 331 334 335 335 335 336 336 335 334 334 335 334 332 331 330 328 327 326 324 322 321 319 318 317 316 316 316 317 318 318 318 319 319 319 320 320 320 320 320 320 320 320 320 320 320 320 319 319 319 319
35 33 33 27 19 11 5 360 357 354 352 348 346 344 342 342 342 342 340 337 336 337 338 337 336 334 334 335 337 338 338 337 333 330 327 326 328 332 335 335 334 333 333 333 332 333 334 334 333 331 329 328 326 325 324 323 322 320 319 318 317 316 316 316 317 317 318 318 318 318 318 318 319 319 320 320 320 320 320 320 320 319 319 319 319 319
51 45 38 27 14 3 356 355 357 357 351 348 346 344 342 341 341 340 339 338 337 338 338 338 337 334 332 332 334 338 340 337 332 328 325 323 326 330 333 334 333 331 330 330 331 331 333 333 331 329 328 327 326 325 324 324 323 321 320 319 317 316 316 316 317 317 317 317 317 317 317 317 318 319 319 320 320 320 320 320 320 320 320 319 319 319
65 53 41 26 8 352 347 356 7 5 354 350 346 343 341 340 340 340 339 338 337 336 335 334 332 329 327 325 327 332 339 335 330 327 324 322 324 327 331 333 332 330 328 328 329 330 331 330 328 327 326 326 326 326 325 324 323 322 321 320 319 318 318 318 318 318 318 317 317 317 317 317 318 318 319 320 320 321 321 320 320 320 320 320 320 320
72 56 41 23 360 345 350 11 16 8 356 350 344 340 339 339 340 339 338 336 334 332 330 328 327 324 321 317 319 326 336 335 331 327 324 321 322 325 330 333 332 330 327 326 327 329 329 328 326 326 326 328 329 329 327 325 324 323 322 322 321 321 320 320 319 319 318 318 317 317 317 317 318 319 319 320 321 321 321 321 321 320 320 320 320 320
75 57 39 20 2 359 14 25 19 6 354 346 341 339 338 338 338 337 335 333 331 329 327 325 323 321 319 316 318 326 334 336 333 329 324 320 320 323 329 332 332 328 325 324 326 328 327 325 325 326 328 330 332 331 328 326 324 324 324 324 324 323 322 322 321 320 319 319 318 318 318 318 318 319 320 321 321 321 321 321 321 320 320 320 320 321
74 60 48 38 28 28 29 20 7 355 349 344 342 342 341 339 338 336 334 331 329 328 327 325 322 319 318 315 316 324 334 336 334 330 325 320 319 322 328 331 331 327 324 323 324 326 325 324 324 325 328 330 331 329 326 325 325 326 327 326 326 325 324 323 322 321 320 320 319 319 319 319 320 321 322 322 322 322 322 321 321 321 321 321 321 321
81 71 57 46 40 28 7 353 348 346 346 347 347 347 345 342 338 334 332 331 329 327 326 322 318 317 316 315 319 326 335 337 336 333 326 320 317 321 327 331 330 326 323 322 323 324 324 323 323 325 327 329 329 328 326 325 326 327 327 327 326 326 325 324 323 322 322 322 321 321 321 321 322 323 323 324 324 323 323 323 323 322 322 322 322 323
94 85 63 29 7 359 353 351 349 349 350 351 351 351 349 346 341 336 333 330 328 326 323 319 318 320 322 323 325 331 336 339 339 336 331 322 318 321 327 330 329 325 321 321 322 323 323 322 322 323 327 329 329 327 326 326 327 327 327 327 326 326 325 324 324 324 323 323 323 323 323 324 324 324 325 325 325 325 325 325 324 324 324 324 324 325
99 88 57 24 14 12 8 1 356 354 353 351 350 348 346 345 344 341 338 335 331 327 325 325 326 327 329 330 331 333 338 342 342 341 340 328 320 321 326 330 329 325 321 320 321 322 321 320 321 323 326 329 330 329 326 326 327 327 327 327 327 326 326 326 326 325 325 326 325 326 325 325 326 326 326 326 327 327 327 327 326 326 326 326 327 328
87 67 49 40 29 17 9 2 356 352 350 349 347 344 341 339 340 341 342 341 339 336 334 333 332 331 331 332 333 334 338 342 343 345 349 336 324 322 326 330 330 325 320 320 321 322 320 319 320 323 326 329 330 329 327 326 327 327 327 328 327 327 327 327 327 327 327 327 327 327 327 327 327 327 327 328 328 328 329 329 329 328 329 330 331 332
69 58 47 30 13 2 356 351 348 346 346 346 345 342 338 336 338 342 346 346 345 342 340 338 334 332 331 332 333 333 335 339 342 345 349 341 330 325 327 332 332 327 321 320 321 321 320 318 318 321 325 328 329 328 326 326 327 328 329 329 328 327 328 328 328 328 328 328 328 328 328 328 328 328 328 329 329 330 330 331 332 332 333 334 334 333
60 49 28 5 354 348 346 344 343 343 344 345 346 343 339 338 341 345 347 346 345 343 342 339 334 331 332 332 330 329 329 333 340 344 346 342 334 327 328 332 333 329 324 321 320 320 318 315 316 319 323 326 325 324 325 327 329 330 331 329 328 327 328 328 328 328 328 328 328 328 328 328 329 329 329 330 330 331 332 332 334 336 335 336 334 332
40 25 8 354 348 346 344 343 343 343 344 346 348 347 343 343 345 347 345 344 343 342 341 337 333 331 329 327 324 323 325 329 339 344 344 343 335 327 328 332 333 331 327 323 321 321 319 316 317 320 323 324 323 323 325 327 329 330 330 329 327 327 327 327 327 328 328 327 327 327 328 328 329 329 329 330 331 332 333 334 335 336 336 335 334 332
24 13 2 352 348 347 346 345 344 345 346 347 349 349 347 347 347 345 343 341 341 341 339 335 332 328 324 322 321 321 324 329 338 343 344 343 336 328 329 332 334 334 332 327 325 324 322 321 322 324 324 323 323 324 325 327 329 330 329 328 327 326 327 326 326 326 327 327 327 327 327 328 328 329 329 330 331 333 334 335 335 336 336 335 333 331
16 10 3 357 354 351 349 345 341 340 343 345 348 348 348 346 345 342 339 339 340 339 337 333 330 328 326 324 324 324 325 328 334 339 344 342 335 329 330 332 333 335 336 334 330 327 323 322 323 324 324 324 324 324 325 326 327 328 329 328 327 326 326 326 326 325 325 326 326 326 327 328 328 329 330 331 332 333 334 335 336 336 335 334 333 330
14 12 6 0 356 353 348 341 335 333 337 343 347 350 350 348 344 341 339 338 338 337 335 331 328 327 327 328 327 323 317 320 327 335 341 338 331 326 328 329 329 332 336 336 335 326 320 320 321 322 324 324 323 323 324 325 326 327 328 327 326 325 326 326 326 325 325 326 326 326 327 328 329 330 331 332 332 333 334 335 336 336 335 334 332 330
17 12 5 357 352 346 339 334 333 338 345 351 355 356 355 353 350 347 343 339 337 335 332 329 326 325 324 322 317 307 306 311 320 329 336 333 326 322 324 324 324 325 329 330 325 315 309 312 316 318 320 321 321 321 323 323 325 326 326 326 324 324 326 327 326 326 326 326 326 326 327 328 329 330 331 332 332 332 333 334 335 336 335 333 331 329
14 5 352 345 341 340 339 342 348 353 357 358 359 359 358 357 355 352 347 342 338 335 332 329 325 323 321 317 312 307 306 309 316 325 330 328 322 319 319 319 319 320 322 323 319 312 303 302 308 313 315 317 318 319 320 322 324 325 325 324 324 324 326 327 327 326 326 326 326 326 327 329 330 331 332 332 332 332 332 333 334 334 334 332 330 328
7 354 346 346 350 356 360 2 3 3 1 360 359 358 358 357 355 351 348 343 339 336 333 330 325 322 319 317 313 309 307 310 317 324 325 323 318 314 314 315 315 317 319 320 319 315 308 306 307 311 313 314 315 317 318 321 323 324 324 323 323 323 324 326 326 326 325 325 325 326 328 330 331 332 332 332 332 331 332 332 332 333 333 331 330 328
10 359 356 359 2 5 7 8 6 4 2 360 358 357 356 354 352 348 345 341 338 335 333 331 327 323 319 315 311 308 306 311 318 323 321 316 312 309 310 310 311 314 316 316 317 316 313 310 310 311 312 314 314 315 317 320 322 322 322 323 322 323 323 324 325 325 324 324 325 326 328 330 331 331 331 331 331 330 330 330 331 331 331 331 330 329
18 9 4 3 4 5 6 5 4 2 360 359 357 356 354 351 349 345 342 339 336 335 333 332 329 326 321 315 310 305 305 311 318 322 320 316 310 306 304 304 306 309 311 312 313 313 311 310 310 311 312 312 313 314 317 319 321 322 322 322 323 323 323 323 323 323 323 323 324 326 328 330 331 330 330 329 329 329 329 329 329 330 330 330 330 329
25 15 8 5 4 4 4 3 2 360 357 355 354 352 351 348 345 342 339 337 336 336 336 335 333 331 327 323 317 313 312 316 321 323 322 318 312 305 297 297 301 305 305 306 308 308 308 308 310 311 311 310 310 312 315 318 320 320 320 321 321 321 321 322 323 322 321 321 322 325 327 329 329 329 328 328 328 328 328 328 328 329 329 329 329 329
25 16 10 8 6 5 3 1 359 357 353 350 349 348 347 344 342 339 337 337 338 339 339 339 337 335 334 332 330 327 325 325 325 325 324 321 316 307 299 296 297 300 301 301 301 303 304 305 308 310 311 309 308 308 310 314 316 317 317 318 318 318 320 321 322 322 320 320 322 325 327 328 328 327 327 327 327 328 327 327 328 328 328 328 329 328
24 16 11 9 7 4 1 358 355 352 350 347 346 345 344 342 339 337 337 338 340 342 342 341 339 338 337 338 338 337 335 332 330 328 326 323 319 313 307 301 299 300 301 301 299 299 299 300 300 302 305 307 307 308 309 311 312 313 315 317 318 318 320 321 321 320 320 321 324 326 326 327 327 327 326 327 327 327 326 325 326 326 326 327 328 328
22 15 11 9 6 3 359 355 352 349 346 345 345 345 344 342 340 339 339 341 343 344 345 344 342 341 340 341 341 341 340 337 335 332 328 325 321 317 311 306 303 303 303 302 300 298 296 296 295 296 297 299 302 304 307 308 309 311 314 317 317 318 319 320 319 319 320 323 325 326 326 326 326 326 325 325 325 324 323 322 322 323 323 324 324 324
19 13 9 6 4 1 357 352 349 347 347 347 348 349 348 345 342 340 340 341 342 344 345 345 344 343 343 344 345 345 343 341 338 335 331 327 322 319 315 311 308 306 305 303 301 299 296 294 294 295 296 297 299 302 303 303 305 309 312 313 312 312 314 316 318 320 322 324 325 325 325 325 324 324 323 322 321 320 319 319 318 319 321 321 320 319
18 11 6 2 360 357 354 352 351 351 353 354 354 353 351 348 344 341 339 338 339 340 341 342 340 339 338 339 342 344 344 343 340 338 334 330 327 323 319 315 312 310 308 305 302 299 297 296 295 295 296 298 300 302 302 302 304 307 309 309 310 312 314 317 320 323 324 325 325 325 324 324 323 322 321 319 318 316 316 317 317 317 318 318 317 315
17 10 5 2 360 357 356 355 356 357 358 357 355 353 352 349 345 342 339 337 337 337 338 339 338 336 333 332 335 338 340 341 340 339 336 334 331 328 324 320 317 314 311 306 303 300 300 298 296 295 296 298 300 299 299 301 304 305 307 308 311 314 315 317 320 323 324 324 323 323 323 322 321 319 318 316 315 314 314 315 316 317 316 315 313 311
15 9 6 5 4 4 3 2 1 359 358 355 353 351 350 349 346 343 340 338 337 337 337 338 337 335 333 331 330 331 333 336 337 338 337 335 334 331 328 325 322 319 315 309 304 302 301 301 298 297 298 299 299 298 297 299 301 304 306 309 311 311 310 314 318 321 322 322 322 322 322 321 319 317 316 314 314 313 314 315 316 316 316 315 313 311
15 10 9 9 9 8 6 3 1 358 355 353 351 349 349 348 346 344 341 339 337 337 337 337 337 336 334 331 330 329 329 331 333 334 335 335 335 333 331 329 326 323 319 313 307 303 300 299 298 299 300 300 298 295 295 296 299 302 306 310 312 312 312 314 317 319 320 320 320 320 320 320 319 317 315 314 314 315 315 316 316 315 316 315 314 312
16 12 10 9 8 6 4 1 358 355 353 351 350 349 348 348 346 344 342 340 338 337 337 337 337 336 332 329 329 329 329 329 330 331 332 334 334 335 334 332 330 326 322 317 312 307 303 298 297 298 300 299 298 295 293 295 298 303 307 312 316 317 317 317 318 318 319 319 319 319 319 319 318 316 314 314 314 315 316 316 316 316 316 315 313 311
17 13 10 7 5 3 1 359 357 354 351 350 349 348 348 348 346 344 343 341 340 338 337 338 337 334 331 329 328 329 328 328 328 329 330 332 333 334 334 333 332 329 325 320 316 312 308 304 301 299 297 296 296 296 296 298 302 306 311 316 319 319 318 318 318 319 319 318 317 318 319 319 318 317 315 315 315 316 316 317 317 316 316 315 313 312
19 14 10 6 2 360 358 357 355 352 350 348 347 347 348 348 346 344 342 342 340 339 338 338 336 334 331 329 328 328 327 327 327 327 329 330 332 333 333 333 332 331 328 325 321 317 313 309 306 302 297 292 290 292 298 304 308 313 316 318 319 319 317 317 318 319 319 317 316 317 318 317 316 315 315 316 316 316 317 317 317 317 316 316 314 313
20 14 9 4 360 356 355 354 352 350 347 345 344 344 345 346 346 344 342 341 341 340 339 338 336 333 330 328 328 328 328 328 327 328 329 331 332 333 333 333 333 332 331 329 327 324 321 317 314 310 304 297 293 296 303 309 314 316 318 318 318 318 317 317 318 319 318 317 316 316 316 316 315 314 315 315 315 316 316 317 317 317 317 317 316 314
17 11 5 0 356 353 351 350 349 347 345 343 341 341 341 343 344 344 343 342 341 340 339 337 335 333 330 328 328 329 330 329 329 330 330 332 333 334 334 334 335 335 334 333 332 332 330 328 325 322 319 312 310 311 315 316 317 318 319 319 319 319 318 317 317 317 317 317 317 316 316 316 316 317 318 317 315 315 315 316 317 317 318 318 317 314
10 5 1 357 353 351 349 348 347 345 344 342 340 339 339 340 341 342 342 342 341 340 339 337 335 333 330 329 329 330 330 331 331 331 331 333 334 334 335 335 336 337 337 336 335 335 335 333 331 329 328 327 328 326 323 320 319 319 320 320 321 321 319 317 316 317 317 317 318 318 318 319 319 320 320 318 316 315 315 315 316 317 317 318 317 315